Weather History for Eau Claire, WI

Change the Weather History Date:

Wednesday, September 12, 2012

  Actual Average Record
Temperature  
Mean Temperature 66 °F 62 °F  
Max Temperature 77 °F 73 °F 99 °F (1895)
Min Temperature 54 °F 51 °F 28 °F (1955)
Degree Days  
Heating Degree Days 0 5  
Month to date heating degree days 17 42  
Since 1 July heating degree days 42 81  
Cooling Degree Days 1 2  
Month to date cooling degree days 54 31  
Year to date cooling degree days 827 558  
Growing Degree Days 15 (Base 50)    
Moisture  
Dew Point 50 °F    
Average Humidity 65    
Maximum Humidity 93    
Minimum Humidity 37    
Precipitation  
Precipitation 0.08 in 0.13 in 3.74 in (1903)
Month to date precipitation 0.77 1.52  
Year to date precipitation 19.93 23.64  
Snow  
Snow 0.00 in 0.00 in 0.00 in ()
Month to date snowfall 0.0 0.0  
Since 1 July snowfall 0.0 0.0  
Since 1 September snowfall 0.0 0.0  
Snow Depth 0.00 in    
Sea Level Pressure  
Sea Level Pressure 30.09 in    
Wind  
Wind Speed 5 mph (West)    
Max Wind Speed 18 mph    
Max Gust Speed 26 mph    
Visibility 10 miles    
Events Rain    
T = Trace of Precipitation, MM = Missing Value Source: NWS Daily Summary

Daily Weather History Graph

Daily Weather History Graph

Search for Another Location

Airport:

Trip Planner

Search our weather history database for the weather conditions in past years. The results will help you decide how hot, cold, wet, or windy it might be!

Date:

Astronomy

Sep. 12, 2012 Rise Set
Actual Time 6:41 AM CDT 7:21 PM CDT
Civil Twilight 6:12 AM CDT 7:50 PM CDT
Nautical Twilight 5:37 AM CDT 8:25 PM CDT
Astronomical Twilight 5:00 AM CDT 9:02 PM CDT
Moon 2:51 AM CDT (9/12) 5:15 PM CDT (9/12)
Length of Visible Light 13h 38m
Length of Day
12h 39m
Waning Crescent, 13% of the Moon is Illuminated
Sep 12
Waning Crescent
Sep 15
New
Sep 22
First Quarter
Sep 29
Full
Oct 8
Last Quarter

Hourly Weather History & Observations

Time (CDT) Temp. Dew Point Humidity Pressure Visibility Wind Dir Wind Speed Gust Speed Precip Events Conditions
12:56 AM 77.0 °F 51.1 °F 40% 29.85 in 10.0 mi SSW 12.7 mph - N/A   Clear
1:56 AM 75.9 °F 51.1 °F 42% 29.86 in 10.0 mi SW 8.1 mph - N/A   Clear
2:56 AM 75.0 °F 51.1 °F 43% 29.88 in 10.0 mi SW 9.2 mph - N/A   Clear
3:56 AM 73.9 °F 52.0 °F 46% 29.89 in 10.0 mi SW 9.2 mph - N/A   Mostly Cloudy
4:56 AM 73.0 °F 52.0 °F 48% 29.92 in 10.0 mi West 11.5 mph - N/A   Clear
5:35 AM 69.8 °F 50.0 °F 49% 29.98 in 10.0 mi NNW 11.5 mph 20.7 mph 0.00 in Rain Light Rain
5:56 AM 68.0 °F 46.9 °F 47% 29.99 in 10.0 mi NW 10.4 mph 20.7 mph 0.00 in   Mostly Cloudy
6:56 AM 64.0 °F 37.9 °F 38% 30.02 in 10.0 mi North 11.5 mph 20.7 mph N/A   Scattered Clouds
7:56 AM 59.0 °F 46.0 °F 62% 30.06 in 10.0 mi Calm Calm - 0.00 in   Scattered Clouds
8:56 AM 61.0 °F 46.0 °F 58% 30.06 in 10.0 mi Calm Calm - N/A   Scattered Clouds
9:56 AM 61.0 °F 45.0 °F 56% 30.10 in 10.0 mi Calm Calm - N/A   Overcast
10:56 AM 62.1 °F 45.0 °F 53% 30.10 in 10.0 mi Calm Calm - 0.00 in   Overcast
11:56 AM 61.0 °F 46.0 °F 58% 30.15 in 10.0 mi West 4.6 mph - N/A   Overcast
12:56 PM 62.1 °F 48.0 °F 60% 30.16 in 10.0 mi West 5.8 mph - 0.00 in   Overcast
1:56 PM 60.1 °F 51.1 °F 72% 30.17 in 10.0 mi West 4.6 mph - 0.01 in   Overcast
2:56 PM 59.0 °F 53.1 °F 81% 30.16 in 8.0 mi WNW 3.5 mph - 0.02 in Rain Light Rain
3:56 PM 57.0 °F 52.0 °F 83% 30.16 in 10.0 mi NNW 5.8 mph - 0.01 in Rain Light Rain
4:56 PM 55.9 °F 51.1 °F 84% 30.21 in 10.0 mi WNW 4.6 mph - 0.01 in Rain Light Rain
5:56 PM 55.9 °F 52.0 °F 87% 30.21 in 9.0 mi Calm Calm - 0.01 in Rain Light Rain
6:56 PM 55.4 °F 53.6 °F 94% 30.20 in 10.0 mi Calm Calm - N/A Rain Light Rain
7:56 PM 55.0 °F 53.1 °F 93% 30.21 in 10.0 mi West 3.5 mph - 0.00 in   Mostly Cloudy
8:56 PM 55.0 °F 52.0 °F 89% 30.22 in 10.0 mi West 4.6 mph - N/A   Mostly Cloudy
9:56 PM 54.0 °F 52.0 °F 93% 30.23 in 10.0 mi SW 3.5 mph - N/A   Scattered Clouds
10:56 PM 53.6 °F 51.8 °F 94% 30.23 in 10.0 mi SW 3.5 mph - N/A   Scattered Clouds
11:56 PM 54.0 °F 52.0 °F 93% 30.25 in 10.0 mi SW 5.8 mph - N/A   Clear